Location: Noverd
(38.0910°N, 121.6877°W)
Time: 19:02:06
(UTC+00:00)

SL-4 R/B - Pass Details

Date: 13 February 2026
Orbit: 382 x 515 km, 51.6° (Epoch: 10 March)

Event Time Altitude Azimuth Distance (km) Brightness Sun altitude
Exits shadow 13:17:20 23° 356° (N) 1,017 3.3 -20.6°
Maximum altitude 13:18:32 28° 30° (NNE) 893 3.3 -20.3°
Drops below altitude 10° 13:21:49 10° 92° (E) 1,652 5.7 -19.7°
Sets 13:24:14 0° 104° (ESE) 2,554 6.9 -19.2°
